Terminal Aerodrome Forecast
Issued by NWS State College, PA

Home | Current Version | Previous Version | Text Only | Print | Product List | Glossary On
Versions: 1 2 3 4 5 6 7 8 9 10 11 12 13 14 15 16 17 18 19 20 21 22 23 24 25 26 27 28 29 30 31 32 33 34 35 36 37 38 39 40 41 42 43 44 45 46 47 48 49 50
000
FTUS41 KCTP 240542
TAFIPT
TAF
KIPT 240542Z 2406/2506 10008KT P6SM RA BKN013 OVC019 WS015/17045KT
     FM241100 12007KT 3SM -DZ BR OVC006 WS015/20040KT
     FM241700 18010G21KT P6SM SCT007 BKN035=

USA.gov is the U.S. government's official web portal to all federal, state and local government web resources and services.